Location: Newark
(41.0400°S, 62.7845°W)
Time: 04:34:28
(UTC+00:00)

Courier 1B Rocket - Pass Details

Date: 09 December 2021
Orbit: 920 x 1202 km, 28.2° (Epoch: 24 January)

Event Time Altitude Azimuth Distance (km) Brightness Sun altitude
Rises 14:45:48 0° 290° (WNW) 3,900 8.0 65.6°
Reaches altitude 10° 14:48:50 10° 300° (WNW) 2,987 7.6 66.0°
Maximum altitude 14:55:08 30° 358° (N) 1,932 7.4 66.8°
Drops below altitude 10° 15:01:41 10° 55° (NE) 3,118 8.1 67.7°
Sets 15:04:56 0° 65° (ENE) 4,096 8.5 68.0°
